TimeEST,TemperatureF,Dew PointF,Humidity,Sea Level PressureIn,VisibilityMPH,Wind Direction,Wind SpeedMPH,Gust SpeedMPH,PrecipitationIn,Events,Conditions,WindDirDegrees,DateUTC
12:53 AM,57.0,42.1,57,30.09,10.0,SSW,15.0,-,N/A,,Clear,200,2012-11-11 05:53:00
1:53 AM,55.9,42.1,60,30.10,10.0,South,11.5,-,N/A,,Clear,190,2012-11-11 06:53:00
2:53 AM,55.0,41.0,59,30.12,10.0,South,9.2,-,N/A,,Clear,190,2012-11-11 07:53:00
3:53 AM,53.1,41.0,64,30.12,10.0,SSW,10.4,-,N/A,,Clear,200,2012-11-11 08:53:00
4:53 AM,53.1,41.0,64,30.14,10.0,SSW,11.5,-,N/A,,Clear,200,2012-11-11 09:53:00
5:53 AM,53.1,39.9,61,30.17,10.0,South,10.4,-,N/A,,Clear,190,2012-11-11 10:53:00
6:53 AM,52.0,39.0,61,30.18,10.0,South,11.5,-,N/A,,Clear,180,2012-11-11 11:53:00
7:53 AM,51.1,39.9,66,30.19,10.0,South,12.7,-,N/A,,Clear,180,2012-11-11 12:53:00
8:53 AM,57.0,39.9,53,30.19,10.0,South,15.0,-,N/A,,Clear,180,2012-11-11 13:53:00
9:53 AM,60.1,41.0,49,30.17,10.0,South,16.1,24.2,N/A,,Clear,190,2012-11-11 14:53:00
10:53 AM,62.1,43.0,50,30.19,10.0,SSW,13.8,23.0,N/A,,Clear,200,2012-11-11 15:53:00
11:53 AM,64.9,42.1,43,30.17,10.0,SSW,17.3,29.9,N/A,,Partly Cloudy,200,2012-11-11 16:53:00
12:53 PM,66.0,39.0,37,30.12,10.0,SSW,24.2,33.4,N/A,,Clear,200,2012-11-11 17:53:00
1:53 PM,68.0,39.0,35,30.09,10.0,South,26.5,36.8,N/A,,Clear,190,2012-11-11 18:53:00
2:53 PM,66.9,37.9,34,30.07,10.0,South,21.9,34.5,N/A,,Clear,190,2012-11-11 19:53:00
3:53 PM,64.9,37.9,37,30.07,10.0,South,17.3,24.2,N/A,,Clear,180,2012-11-11 20:53:00
4:53 PM,62.1,37.0,39,30.08,10.0,South,15.0,24.2,N/A,,Clear,170,2012-11-11 21:53:00
5:53 PM,60.1,37.9,44,30.06,10.0,SSE,12.7,-,N/A,,Clear,160,2012-11-11 22:53:00
6:53 PM,57.9,37.9,47,30.05,10.0,SSE,15.0,-,N/A,,Clear,160,2012-11-11 23:53:00
7:53 PM,59.0,37.0,44,30.04,10.0,South,21.9,28.8,N/A,,Clear,170,2012-11-12 00:53:00
8:53 PM,57.9,37.0,46,30.03,10.0,SSE,12.7,-,N/A,,Clear,160,2012-11-12 01:53:00
9:53 PM,57.9,37.0,46,30.01,10.0,SSE,12.7,-,N/A,,Clear,160,2012-11-12 02:53:00
10:53 PM,57.0,37.0,47,29.99,10.0,SSE,12.7,-,N/A,,Clear,160,2012-11-12 03:53:00
11:53 PM,63.0,39.9,43,29.99,10.0,South,25.3,38.0,N/A,,Partly Cloudy,190,2012-11-12 04:53:00